Location: Solon
(41.3849°N, 81.4081°W)
Time: 20:12:05
(UTC-04:00)

CZ-2C R/B - Visible Passes

Search period start: 26 May 2016 00:00
Search period end: 05 June 2016 00:00
Orbit: 705 x 908 km, 98.2° (Epoch: 25 May)

Date Brightness Start Highest point End Pass type
(mag) Time Alt. Az. Time Alt. Az. Time Alt. Az.
26 May 3.7 01:39:23 46° E 01:40:16 50° ENE 01:45:44 10° N visible
26 May 4.6 03:20:27 22° W 03:20:27 22° W 03:24:42 10° NW visible
27 May 4.5 01:14:18 28° E 01:15:44 32° ENE 01:20:41 10° N visible
27 May 3.9 02:55:22 36° W 02:55:27 36° W 03:00:38 10° NNW visible
28 May 5.1 00:49:12 17° E 00:51:19 20° ENE 00:55:22 10° NNE visible
28 May 3.2 02:30:16 59° WSW 02:30:36 60° W 02:36:14 10° NNW visible
29 May 5.6 00:24:31 10° E 00:26:58 13° ENE 00:29:27 10° NNE visible
29 May 3.1 02:05:11 70° SSE 02:05:51 84° ENE 02:11:36 10° NNW visible
29 May 5.2 03:46:15 13° W 03:46:26 13° W 03:48:50 10° WNW visible
30 May 3.7 01:40:06 45° ESE 01:41:12 52° ENE 01:46:46 10° N visible
30 May 4.6 03:21:10 22° W 03:21:23 22° W 03:25:40 10° NW visible
31 May 4.5 01:15:01 28° E 01:16:41 33° ENE 01:21:44 10° N visible
31 May 4.0 02:56:05 35° WSW 02:56:25 35° W 03:01:38 10° NNW visible
01 Jun 5.1 00:49:57 17° E 00:52:14 22° ENE 00:56:27 10° NNE visible
01 Jun 3.3 02:31:01 56° SW 02:31:34 58° W 02:37:14 10° NNW visible
02 Jun 5.6 00:25:10 10° E 00:27:53 14° ENE 00:30:39 10° NNE visible
02 Jun 3.2 02:05:57 66° SSE 02:06:48 87° ENE 02:12:37 10° NNW visible
02 Jun 5.2 03:47:00 12° W 03:47:25 12° W 03:49:44 10° WNW visible
03 Jun 3.7 01:40:52 45° ESE 01:42:09 55° ENE 01:47:48 10° N visible
03 Jun 4.7 03:21:56 21° W 03:22:21 21° W 03:26:38 10° NW visible
04 Jun 4.5 01:15:48 28° ESE 01:17:37 35° ENE 01:22:47 10° N visible
04 Jun 4.0 02:56:52 34° WSW 02:57:23 35° W 03:02:38 10° NNW visible
